www.pogodaiklimat.ru

Погода и климат >> Архив погоды >> Россия >> Кировская область >> Кумены


ПОГОДА в Кумене

  • Прогноз погоды в Кумене
  • Монитор погоды в Кумене

АРХИВ ПОГОДЫ в Кумене

Время (UTC), дата Ветер
(напр.,м/с)
 
Видим.   Явления Облачность Т
(С)
Тd
(С)
f
(%)
Тe
(С)
Тes
(С)
Комфортность P
(гПа)
Po
(гПа)
Тmin
(С)
Tmax
(С)
R
(мм)
R24
(мм)
S
(см)
03 17.03 ЮВ 2-3
{6}
28 км 10/0
[As op]
-3.9 -8.0 73 -8 -8 1019.7 997.1 -4.1 0.2 65
06 17.03 ЮВ 3-6
{7}
12 км слаб. снег 10/0
[As op]
-3.4 -8.1 70 -8 -8 1020.1 997.5
09 17.03 ЮВ 3-6
{7}
30 км {снег} 10/0
[As op]
-2.0 -5.1 79 -7 -6 1020.8 998.3
12 17.03 ЮВ 3-6
{6}
25 км {снег} 10/10 600 м
[Cb cap]
-0.3 -4.4 74 -5 -5 1021.5 999.1
15 17.03 ЮВ 2-4
{6}
20 км {ливн. осадки} 10/10 600 м
[Cb cap]
+0.3 -4.4 71 -3 -3 1022.1 999.8 +0.3 0.5
18 17.03 Ю 2-4
{5}
10 км {ливн. осадки} 10/10 600 м
[Cb cap]
+0.1 -3.6 76 -3 -3 1023.0 1000.7
21 17.03 Ю 2-4
{6}
10 км 10/0
[As op]
-0.1 -4.6 72 -3 -3 1023.7 1001.3
00 18.03 ЮВ 2-3
{4}
10 км 10/0
[As op]
-0.3 -4.4 74 -4 -4 1024.5 1002.1
03 18.03 Ю 2-4
{5}
22 км 10/0
[Ac As]
-0.6 -5.2 71 -4 -4 1025.4 1002.9 -0.9 66
06 18.03 Ю 3-5
{5}
20 км 10/0
[Ac und]
+0.1 -4.7 70 -4 -3 1026.7 1004.1
09 18.03 Ю 2-4
{5}
20 км 10/0
[Ac und]
+2.2 -4.6 61 -1 +1 1027.3 1005.1
12 18.03 Ю 2-4
{5}
20 км 9/6 600 м
[Sc Ac trans]
+2.9 -5.5 54 0 +1 1027.7 1005.5
15 18.03 Ю 2-4
{4}
20 км 10/0
[Ac und]
+1.8 -4.7 62 -1 -1 1027.2 1004.9 +3.0
18 18.03 Ю 2-3
{4}
20 км 10/0
[Ac und]
+0.5 -4.9 67 -3 -3 1027.5 1005.1
21 18.03 Ю 1-3
{4}
10 км 8/0
[Ac trans]
+0.4 -3.9 73 -1 -1 1027.5 1005.1
00 19.03 Ю 2-4
{4}
10 км 8/0
[Ac trans]
-1.6 -4.3 82 -5 -5 1027.3 1004.7
03 19.03 Ю 2-4
{4}
28 км 10/0
[Ci fib]
-2.6 -4.5 87 -7 -7 1026.5 1003.8 -2.6 65
06 19.03 Ю 2-5
{6}
40 км 10/0
[Ci fib]
-0.1 -3.5 78 -4 -1 1025.8 1003.3
09 19.03 Ю 3-6
{7}
20 км 10/0
[Ac As]
+4.5 -1.9 63 +1 +3 1025.2 1003.1
12 19.03 Ю 3-6
{8}
18 км 10/0
[Ac As]
+5.6 -2.1 58 +3 +3 1024.6 1002.6
15 19.03 Ю 2-4
{8}
17 км 10/0
[Ac trans Ci sp]
+3.6 -2.4 65 +1 +1 1023.8 1001.8 +5.6
18 19.03 Ю 3-5
{8}
10 км 9/0
[Ci fib]
+1.8 -2.9 71 -2 -2 1022.8 1000.6
21 19.03 Ю 2-4
{6}
10 км 10/0
[Ac und]
+0.9 -3.3 73 -2 -2 1022.6 1000.3
00 20.03 Ю 2-4
{5}
10 км 10/0
[Ac As]
+1.0 -2.5 77 -2 -2 1021.9 999.7
03 20.03 Ю 2-3
{5}
18 км 10/10 600 м
[St]
+1.2 -1.1 85 -2 -2 1021.2 999.0 +0.9 64
06 20.03 ЮЗ 3-4
{5}
13 км слаб. морось 10/10 300 м
[St]
+2.3 -0.5 82 -2 -2 1020.3 998.2
09 20.03 З 2-4
{6}
30 км {морось} 10/0
[As op]
+3.2 +0.3 81 0 +2 1020.2 998.2
12 20.03 ЮЗ 3-4
{6}
29 км {морось} 10/0
[As op]
+3.3 -0.2 78 -1 0 1020.3 998.3
15 20.03 Ю 2-4
{5}
35 км 10/0
[Ac As]
+2.5 -1.1 77 -1 -1 1019.7 997.7 +3.4 0.0
18 20.03 Ю 2-3
{3}
10 км 10/0
[Ac As]
+1.7 -0.8 83 -2 -2 1019.4 997.3
21 20.03 З 2-5
{7}
10 км 10/0
[Ac As]
+1.9 -0.6 83 -1 -1 1018.2 996.2
00 21.03 З 2-3
{6}
10 км 10/0
[Ac As]
+1.2 -1.7 81 -2 -2 1018.0 995.9
03 21.03 З 2-4
{6}
18 км 10/10 600 м
[Cb cap]
+0.9 -0.5 90 -3 -3 1018.0 995.9 +0.8 63
06 21.03 З 2-4
{5}
25 км 10/10 600 м
[Cb cap]
+1.2 -1.7 81 -2 -2 1018.6 996.5
09 21.03 ЮЗ 2-4
{5}
20 км 6/0
[Ac trans]
+4.9 -2.7 58 +3 +7 1018.3 996.5
12 21.03 З 2-4
{5}
20 км 10/0
[Ac As]
+4.3 -6.3 46 +2 +3 1018.2 996.3
15 21.03 Ю 1-1
{4}
20 км 9/0
[Ac trans]
+3.5 -6.7 47 +3 +3 1018.1 996.1 +5.6
18 21.03 Ю 1-2
{3}
10 км 8/0
[Ac lent]
+0.8 -5.3 64 -1 -1 1018.0 995.8
21 21.03 Ю 1-2
{3}
10 км 10/0
[Ac As]
+0.6 -4.4 69 -1 -1 1017.2 995.0
00 22.03 Ю 1-2
{3}
10 км 6/0
[Ac trans]
-0.1 -3.7 77 -2 -2 1016.2 993.9
03 22.03 Ю 2-3
{4}
40 км 10/10 600 м
[Sc]
-0.6 -3.4 81 -4 -4 1014.8 992.7 -0.6 61
06 22.03 штиль 0-3
{4}
50 км ?/? +0.9 -2.7 77 0 0 1013.9 991.9
09 22.03 Ю 4-10
{10}
20 км в посл. час крупа 10/10 300 м
[Cb cap]
+3.4 -3.0 63 -1 -1 1012.8 991.0
12 22.03 ЮЗ 2-3
{10}
20 км {ливн. осадки} 10/10 300 м
[Cb cap]
+2.6 -2.3 70 -0 -0 1012.4 990.5
15 22.03 Ю 2-4
{7}
20 км 10/10 600 м
[Sc]
+1.6 -3.5 69 -1 -1 1013.1 991.1 +3.4 0.3
18 22.03 Ю 1-2
{4}
20 км 10/10 600 м
[Sc diur, vesp]
+0.2 -2.2 84 -2 -2 1014.4 992.3
21 22.03 штиль 0
{2}
20 км 10/10 600 м
[Sc diur, vesp]
-0.9 -2.7 88 -2 -2 1016.1 993.8
00 23.03 ЮВ 1-1
{1}
20 км 6/0
[Ac trans]
-3.3 -4.4 92 -6 -6 1017.8 995.3
03 23.03 штиль 0
{1}
1800 м дымка 8/0
[Ac trans Ci fib]
-5.6 -6.3 95 -7 -7 1019.7 997.0 -6.0 61
06 23.03 штиль 0
{1}
18 км ясно -0.7 -3.2 83 -2 +4 1021.0 998.6
09 23.03 СВ 1-2
{3}
22 км 8/0
[Ac trans Ci fib]
+4.4 -3.8 55 +4 +9 1021.1 999.1
12 23.03 СВ 2-2
{4}
24 км 8/0
[Ac trans Ci sp]
+5.1 -5.9 45 +3 +5 1020.9 999.0
15 23.03 В 1-1
{3}
22 км 1/0
[Ac trans]
+3.7 -6.8 46 +3 +3 1020.9 998.9 +5.9
18 23.03 Ю 1-1
{2}
10 км ясно -2.2 -6.9 70 -4 -4 1021.9 999.4
21 23.03 Ю 1-2
{2}
10 км ясно -3.2 -7.5 72 -5 -5 1021.7 999.1
00 24.03 Ю 1-2
{2}
10 км 10/0
[Cs]
-5.2 -7.3 85 -8 -8 1020.9 998.1

 

Местоположение метеостанции Кумены (Кировская область, Россия): широта 58.10 долгота 49.92 высота над уровнем моря 177 м.

В архиве по умолчанию представлена погода в Кумене за последнюю неделю. Архивные данные за месяц целиком и за предыдущие месяцы, начиная с января 2011 года, Вы можете получить, выбрав интересующий диапазон дат из раскрывающегося списка и нажав кнопку "Ввод!".


*Определитесь, кто Вы:
робот инопланетянин человек

Внимание! Время в таблицах - всемирное. Для получения местного времени необходимо прибавить поправку, которая равна 3 ч.

Смотрите также архив погоды в соседних городах и на ближайших метеорологических станциях:

Погода в Кирове (Кировская область, Россия) (58 км)
Погода в Нолинске (Кировская область, Россия) (61 км)
Погода в Котельниче (Кировская область, Россия) (95 км)
Погода в Белой Холунице (Кировская область, Россия) (98 км)
Погода в Фаленках (Кировская область, Россия) (101 км)
Погода в Уни (Кировская область, Россия) (101 км)
Погода в Уржуме (Кировская область, Россия) (109 км)
Погода в Даровском (Кировская область, Россия) (136 км)
Погода в Новом Торьяле (Марий-Эл, Россия) (141 км)
Погода в Яранске (Кировская область, Россия) (144 км)

Пояснения к столбцам:

Ветер - указаны скорость ветра в м/с - средняя за 10 мин, порывы в срок и между сроками (в фигурных скобках) и направление, откуда дует ветер: С - северный, СВ - северо-восточный, В - восточный, ЮВ - юго-восточный, Ю - южный, ЮЗ - юго-западный, З - западный, СЗ - северо-западный.
Видимость - горизонтальная дальность видимости в метрах или километрах. При видимости от 1 до 10 км при отсутствии осадков обычно наблюдается дымка, при ухудшении видимости до 1 км и менее - туман. В сухую погоду видимость может ухудшаться дымом, пылью или мглою.
Явления - указаны атмосферные явления, наблюдавшиеся в срок или в последний час перед сроком; фигурными скобками обозначены явления, наблюдавшиеся между сроками (за 1-3 часа до срока); квадратными скобками обозначены град или гололедные отложения с указанием их диаметра в мм.
Облачность - указаны через наклонную черту общая и нижняя облачность в баллах и высота нижней границы облаков в метрах; квадратными скобками обозначены формы облаков: Ci - перистые, Cs - перисто-слоистые, Cc - перисто-кучевые, Ac - высококучевые, As - высокослоистые, Sc - слоисто-кучевые, Ns - слоисто-дождевые, Cu - кучевые, Cb - кучево-дождевые. Подробнее классификацию облаков см. в Атласе облаков (PDF).
T - Температура воздуха - температура, измеренная на высоте 2 м над землей.
Td - Температура точки росы - температура, при понижении до которой содержащийся в воздухе водяной пар достигнет насыщения.
f - Относительная влажность воздуха - влажноcть воздуха, измеренная на высоте 2 м над землей.
Te - Эффективная температура - температура, которую ощущает одетый по сезону человек в тени. Характеристика душности погоды. При расчете учитывается влияние влажности воздуха и скорости ветра на теплоощущения человека.
Tes - Эффективная температура на солнце - температура, которую ощущает человек, с поправкой на солнечный нагрев. Характеристика знойности погоды. Зависит от высоты солнца над горизонтом, облачности и скорости ветра. Ночью, в пасмурную погоду, а также при ветре 12 м/с и более поправка равна нулю.
P - Атмосферное давление - приведенное к уровню моря атмосферное давление.
Po - Атмосферное давление - измеренное на уровне метеостанции атмосферное давление.
Tmin - Минимальная температура - минимум температуры воздуха на высоте 2 м над землей.
Tmax - Максимальная температура - максимум температуры воздуха на высоте 2 м над землей.
R - Количество осадков - Количество выпавших осадков за период времени, мм. При наведении курсора мыши на число - период времени, за который выпало указанное количество осадков.
R24 - Количество осадков - Количество выпавших осадков за 24 часа, мм.
S - Снежный покров - Высота снежного покрова, см. При наведении курсора мыши на число - состояние снежного покрова и степень покрытия местности в баллах.